Location: Zagreb
(45.8000°N, 16.0000°E)
Time: 19:13:44
(UTC+02:00)

Explorer 11/Cluster Stage 4 - All Passes

Search period start: 09 August 2020 00:00
Search period end: 19 August 2020 00:00
Orbit: 467 x 1258 km, 28.8° (Epoch: 08 August)

Date Brightness Start Highest point End Pass type
(mag) Time Alt. Az. Time Alt. Az. Time Alt. Az.
09 Aug - 01:03:29 10° SW 01:08:50 20° S 01:13:46 10° SE night (unlit)
09 Aug - 02:52:06 10° SW 02:56:43 18° SSW 03:00:54 10° SSE visible
09 Aug - 23:05:31 10° SSW 23:09:44 15° SSE 23:13:52 10° SE visible
10 Aug - 00:52:07 10° SW 00:57:45 21° S 01:02:58 10° SE night (unlit)
10 Aug - 02:40:55 10° SW 02:45:39 18° SSW 02:49:58 10° SSE visible
10 Aug - 22:53:55 10° SSW 22:58:37 16° SSE 23:03:13 10° SE visible
11 Aug - 00:40:50 10° SW 00:46:38 22° S 00:52:06 10° SE night (unlit)
11 Aug - 02:29:47 10° SW 02:34:34 18° SSW 02:38:59 10° SSE night (unlit)
11 Aug - 22:42:26 10° SSW 22:47:28 18° SSE 22:52:27 10° SE visible
12 Aug - 00:29:35 10° SW 00:35:31 22° S 00:41:10 10° SE night (unlit)
12 Aug - 02:18:41 10° SW 02:23:28 17° SSW 02:27:55 10° SSE night (unlit)
12 Aug - 22:31:04 10° SSW 22:36:19 19° SSE 22:41:36 10° SE visible
13 Aug - 00:18:23 10° SW 00:24:23 22° S 00:30:10 10° SE visible
13 Aug - 02:07:40 10° SW 02:12:21 17° SSW 02:16:45 10° SSE night (unlit)
13 Aug - 22:19:47 10° SSW 22:25:10 20° SSE 22:30:40 10° SE visible
14 Aug - 00:07:16 10° SW 00:13:15 23° S 00:19:07 10° SE visible
14 Aug - 01:56:42 10° SW 02:01:12 16° SSW 02:05:31 10° SSE night (unlit)
14 Aug - 20:24:26 10° SSE 20:26:17 11° SSE 20:28:10 10° SE daylight
14 Aug - 22:08:35 10° SSW 22:14:01 20° S 22:19:39 10° SE visible
14 Aug - 23:56:11 10° SW 00:02:07 22° S 00:08:00 10° SE visible
15 Aug - 01:45:50 10° SW 01:50:04 15° SSW 01:54:09 10° S night (unlit)
15 Aug - 20:12:39 10° S 20:15:08 12° SSE 20:17:44 10° SE daylight
15 Aug - 21:57:27 10° SW 22:02:53 21° S 22:08:36 10° SE visible
15 Aug - 23:45:10 10° SW 23:50:58 22° S 23:56:49 10° SE visible
16 Aug - 01:35:05 10° SW 01:38:54 14° SSW 01:42:39 10° S night (unlit)
16 Aug - 20:01:10 10° S 20:04:00 13° SSE 20:07:00 10° SE daylight
16 Aug - 21:46:24 10° SW 21:51:46 21° S 21:57:28 10° SE visible
16 Aug - 23:34:13 10° SW 23:39:50 21° S 23:45:34 10° SE visible
17 Aug - 01:24:30 10° SW 01:27:45 13° SSW 01:30:57 10° S night (unlit)
17 Aug - 19:49:51 10° S 19:52:54 13° SSE 19:56:09 10° SE daylight
17 Aug - 21:35:24 10° SW 21:40:39 21° S 21:46:18 10° SE visible
17 Aug - 23:23:20 10° SW 23:28:42 20° S 23:34:15 10° SSE visible
18 Aug - 01:14:15 10° SW 01:16:35 11° SSW 01:18:56 10° S night (unlit)
18 Aug - 19:38:41 10° S 19:41:49 14° SSE 19:45:11 10° SE daylight
18 Aug - 21:24:28 10° SW 21:29:32 21° S 21:35:04 10° SE visible
18 Aug - 23:12:31 10° SW 23:17:34 19° S 23:22:51 10° SSE visible
